Location: Unspecified
(47.6578°N, 23.5640°E)
Time: 04:21:41
(UTC+02:00)

ISS - Pass Details

Date: 03 December 2017
Orbit: 402 x 407 km, 51.6° (Epoch: 10 December)

Event Time Altitude Azimuth Distance (km) Brightness Sun altitude
Rises 19:43:33 0° 281° (W) 2,329 1.1 -30.8°
Reaches altitude 10° 19:45:44 10° 289° (WNW) 1,468 -0.2 -31.2°
Enters shadow 19:45:48 11° 290° (WNW) 1,439 -0.3 -31.2°
